,,PressureMeas_1m,,PRMeasQMR101_1,,RHStat155_1m_1,,SRMeasQMS101R_1m,,TAStat155_1m_1,,GenWind_1,,GenWind_1,
2018-08-20, 00:00:06,VALID,917.854,VALID,0.0,VALID,96.459,VALID,0.002,VALID,19.836,VALID,322.0,VALID,0.0,
2018-08-20, 00:01:06,VALID,917.833,VALID,0.0,VALID,95.877,VALID,0.002,VALID,19.776,VALID,339.0,VALID,0.0,
2018-08-20, 00:02:06,VALID,917.816,VALID,0.0,VALID,96.409,VALID,0.007,VALID,19.804,VALID,46.0,VALID,0.0,
2018-08-20, 00:03:06,VALID,917.79,VALID,0.0,VALID,96.288,VALID,-0.001,VALID,19.756,VALID,58.0,VALID,0.0,
2018-08-20, 00:04:06,VALID,917.757,VALID,0.0,VALID,96.603,VALID,0.005,VALID,19.773,VALID,61.0,VALID,0.0,
2018-08-20, 00:05:06,VALID,917.729,VALID,0.0,VALID,96.818,VALID,-0.0,VALID,19.793,VALID,38.0,VALID,0.0,
2018-08-20, 00:06:06,VALID,917.721,VALID,0.0,VALID,97.275,VALID,0.008,VALID,19.875,VALID,41.0,VALID,0.0,
2018-08-20, 00:07:06,VALID,917.717,VALID,0.0,VALID,97.13,VALID,0.027,VALID,19.879,VALID,29.0,VALID,0.0,
2018-08-20, 00:08:06,VALID,917.689,VALID,0.0,VALID,97.51,VALID,0.019,VALID,19.98,VALID,31.0,VALID,0.0,
2018-08-20, 00:09:06,VALID,917.701,VALID,0.0,VALID,96.948,VALID,0.026,VALID,19.926,VALID,50.0,VALID,0.0,
2018-08-20, 00:10:06,VALID,917.69,VALID,0.0,VALID,96.948,VALID,0.013,VALID,19.95,VALID,65.0,VALID,0.0,
2018-08-20, 00:11:06,VALID,917.685,VALID,0.0,VALID,96.185,VALID,-0.0,VALID,19.841,VALID,110.0,VALID,0.0,
2018-08-20, 00:12:06,VALID,917.664,VALID,0.0,VALID,96.466,VALID,0.013,VALID,19.853,VALID,124.0,VALID,0.0,
2018-08-20, 00:13:06,VALID,917.66,VALID,0.0,VALID,96.34,VALID,0.014,VALID,19.785,VALID,135.0,VALID,0.0,
2018-08-20, 00:14:06,VALID,917.634,VALID,0.0,VALID,95.966,VALID,0.024,VALID,19.715,VALID,148.0,VALID,0.0,
2018-08-20, 00:15:06,VALID,917.626,VALID,0.0,VALID,95.833,VALID,0.001,VALID,19.646,VALID,149.0,VALID,0.0,
2018-08-20, 00:16:06,VALID,917.614,VALID,0.0,VALID,96.305,VALID,0.009,VALID,19.638,VALID,154.0,VALID,0.0,
2018-08-20, 00:17:06,VALID,917.606,VALID,0.0,VALID,96.893,VALID,-0.002,VALID,19.665,VALID,161.0,VALID,0.0,
2018-08-20, 00:18:06,VALID,917.597,VALID,0.0,VALID,97.303,VALID,0.009,VALID,19.706,VALID,152.0,VALID,0.0,
2018-08-20, 00:19:06,VALID,917.572,VALID,0.0,VALID,97.535,VALID,0.024,VALID,19.718,VALID,152.0,VALID,0.0,
2018-08-20, 00:20:06,VALID,917.58,VALID,0.0,VALID,97.589,VALID,0.008,VALID,19.71,VALID,152.0,VALID,0.0,
2018-08-20, 00:21:06,VALID,917.571,VALID,0.0,VALID,97.669,VALID,0.014,VALID,19.701,VALID,152.0,VALID,0.0,
2018-08-20, 00:22:06,VALID,917.584,VALID,0.0,VALID,97.459,VALID,0.028,VALID,19.606,VALID,152.0,VALID,0.0,
2018-08-20, 00:23:06,VALID,917.581,VALID,0.0,VALID,97.252,VALID,0.043,VALID,19.526,VALID,152.0,VALID,0.0,
2018-08-20, 00:24:06,VALID,917.582,VALID,0.0,VALID,96.958,VALID,0.016,VALID,19.433,VALID,152.0,VALID,0.0,
2018-08-20, 00:25:06,VALID,917.568,VALID,0.0,VALID,97.178,VALID,0.026,VALID,19.452,VALID,152.0,VALID,0.0,
2018-08-20, 00:26:06,VALID,917.555,VALID,0.0,VALID,97.592,VALID,0.029,VALID,19.536,VALID,152.0,VALID,0.0,
2018-08-20, 00:27:06,VALID,917.552,VALID,0.0,VALID,97.777,VALID,0.032,VALID,19.55,VALID,152.0,VALID,0.0,
2018-08-20, 00:28:06,VALID,917.537,VALID,0.0,VALID,97.65,VALID,0.042,VALID,19.489,VALID,152.0,VALID,0.0,
2018-08-20, 00:29:06,VALID,917.519,VALID,0.0,VALID,97.793,VALID,0.046,VALID,19.523,VALID,151.0,VALID,0.0,
2018-08-20, 00:30:06,VALID,917.507,VALID,0.0,VALID,97.737,VALID,0.044,VALID,19.473,VALID,130.0,VALID,0.0,
2018-08-20, 00:31:06,VALID,917.508,VALID,0.0,VALID,97.464,VALID,0.047,VALID,19.372,VALID,128.0,VALID,0.0,
2018-08-20, 00:32:06,VALID,917.507,VALID,0.0,VALID,97.055,VALID,0.042,VALID,19.243,VALID,104.0,VALID,0.0,
2018-08-20, 00:33:06,VALID,917.49,VALID,0.0,VALID,96.884,VALID,0.041,VALID,19.217,VALID,91.0,VALID,0.0,
2018-08-20, 00:34:06,VALID,917.481,VALID,0.0,VALID,97.586,VALID,0.026,VALID,19.368,VALID,91.0,VALID,0.0,
2018-08-20, 00:35:06,VALID,917.473,VALID,0.0,VALID,97.726,VALID,-0.001,VALID,19.384,VALID,91.0,VALID,0.0,
2018-08-20, 00:36:06,VALID,917.441,VALID,0.0,VALID,97.734,VALID,0.003,VALID,19.365,VALID,91.0,VALID,0.0,
2018-08-20, 00:37:06,VALID,917.433,VALID,0.0,VALID,98.098,VALID,-0.001,VALID,19.479,VALID,91.0,VALID,0.0,
2018-08-20, 00:38:06,VALID,917.432,VALID,0.0,VALID,98.228,VALID,-0.007,VALID,19.537,VALID,96.0,VALID,0.0,
2018-08-20, 00:39:06,VALID,917.415,VALID,0.0,VALID,98.154,VALID,0.003,VALID,19.485,VALID,99.0,VALID,0.0,
2018-08-20, 00:40:06,VALID,917.397,VALID,0.0,VALID,98.059,VALID,-0.017,VALID,19.398,VALID,107.0,VALID,0.0,
2018-08-20, 00:41:06,VALID,917.386,VALID,0.0,VALID,98.01,VALID,-0.019,VALID,19.335,VALID,108.0,VALID,0.0,
2018-08-20, 00:42:06,VALID,917.354,VALID,0.0,VALID,98.118,VALID,-0.03,VALID,19.348,VALID,107.0,VALID,0.0,
2018-08-20, 00:43:06,VALID,917.33,VALID,0.0,VALID,98.177,VALID,-0.026,VALID,19.355,VALID,107.0,VALID,0.0,
2018-08-20, 00:44:06,VALID,917.307,VALID,0.0,VALID,98.281,VALID,-0.026,VALID,19.377,VALID,106.0,VALID,0.0,
2018-08-20, 00:45:06,VALID,917.301,VALID,0.0,VALID,98.289,VALID,-0.034,VALID,19.35,VALID,105.0,VALID,0.0,
2018-08-20, 00:46:06,VALID,917.28,VALID,0.0,VALID,98.253,VALID,-0.023,VALID,19.316,VALID,104.0,VALID,0.458,
2018-08-20, 00:47:06,VALID,917.307,VALID,0.0,VALID,98.29,VALID,-0.029,VALID,19.284,VALID,102.0,VALID,1.309,
2018-08-20, 00:48:06,VALID,917.3,VALID,0.0,VALID,98.353,VALID,-0.033,VALID,19.309,VALID,100.0,VALID,1.342,
2018-08-20, 00:49:06,VALID,917.307,VALID,0.0,VALID,98.512,VALID,-0.031,VALID,19.413,VALID,95.0,VALID,1.263,
2018-08-20, 00:50:06,VALID,917.303,VALID,0.0,VALID,98.681,VALID,-0.023,VALID,19.584,VALID,89.0,VALID,1.145,
2018-08-20, 00:51:06,VALID,917.282,VALID,0.0,VALID,98.744,VALID,-0.016,VALID,19.701,VALID,89.0,VALID,1.052,
2018-08-20, 00:52:06,VALID,917.255,VALID,0.0,VALID,98.692,VALID,0.019,VALID,19.695,VALID,94.0,VALID,0.866,
2018-08-20, 00:53:06,VALID,917.217,VALID,0.0,VALID,98.565,VALID,0.025,VALID,19.599,VALID,99.0,VALID,0.739,
2018-08-20, 00:54:06,VALID,917.214,VALID,0.0,VALID,98.463,VALID,0.016,VALID,19.479,VALID,107.0,VALID,0.686,
2018-08-20, 00:55:06,VALID,917.166,VALID,0.0,VALID,98.483,VALID,0.029,VALID,19.448,VALID,107.0,VALID,0.739,
2018-08-20, 00:56:06,VALID,917.182,VALID,0.0,VALID,98.572,VALID,0.023,VALID,19.508,VALID,112.0,VALID,0.764,
2018-08-20, 00:57:06,VALID,917.152,VALID,0.0,VALID,98.646,VALID,0.022,VALID,19.582,VALID,112.0,VALID,0.896,
2018-08-20, 00:58:06,VALID,917.142,VALID,0.0,VALID,98.665,VALID,0.033,VALID,19.635,VALID,113.0,VALID,1.021,
2018-08-20, 00:59:06,VALID,917.12,VALID,0.0,VALID,98.662,VALID,0.038,VALID,19.637,VALID,109.0,VALID,1.061,
2018-08-20, 01:00:06,VALID,917.09,VALID,0.0,VALID,98.582,VALID,0.016,VALID,19.591,VALID,110.0,VALID,1.056,
2018-08-20, 01:01:06,VALID,917.065,VALID,0.0,VALID,98.514,VALID,0.014,VALID,19.522,VALID,106.0,VALID,1.023,
2018-08-20, 01:02:06,VALID,917.032,VALID,0.0,VALID,98.379,VALID,0.017,VALID,19.384,VALID,105.0,VALID,0.993,
2018-08-20, 01:03:06,VALID,917.01,VALID,0.0,VALID,98.277,VALID,0.021,VALID,19.289,VALID,108.0,VALID,1.071,
2018-08-20, 01:04:06,VALID,916.983,VALID,0.0,VALID,98.411,VALID,0.034,VALID,19.327,VALID,105.0,VALID,1.091,
2018-08-20, 01:05:06,VALID,916.965,VALID,0.0,VALID,98.351,VALID,0.024,VALID,19.315,VALID,103.0,VALID,1.111,
2018-08-20, 01:06:06,VALID,916.956,VALID,0.0,VALID,98.345,VALID,0.015,VALID,19.307,VALID,105.0,VALID,1.112,
2018-08-20, 01:07:06,VALID,916.959,VALID,0.0,VALID,98.378,VALID,-0.008,VALID,19.3,VALID,106.0,VALID,1.388,
2018-08-20, 01:08:06,VALID,916.969,VALID,0.0,VALID,98.427,VALID,0.007,VALID,19.329,VALID,108.0,VALID,1.685,
2018-08-20, 01:09:06,VALID,916.968,VALID,0.0,VALID,98.554,VALID,0.002,VALID,19.43,VALID,102.0,VALID,1.649,
2018-08-20, 01:10:06,VALID,916.975,VALID,0.0,VALID,98.575,VALID,0.004,VALID,19.477,VALID,98.0,VALID,1.579,
2018-08-20, 01:11:06,VALID,916.989,VALID,0.0,VALID,98.486,VALID,-0.006,VALID,19.431,VALID,97.0,VALID,1.473,
2018-08-20, 01:12:06,VALID,916.989,VALID,0.0,VALID,98.459,VALID,-0.002,VALID,19.399,VALID,100.0,VALID,1.477,
2018-08-20, 01:13:06,VALID,916.986,VALID,0.0,VALID,98.455,VALID,0.005,VALID,19.378,VALID,103.0,VALID,1.461,
2018-08-20, 01:14:06,VALID,916.956,VALID,0.0,VALID,98.378,VALID,-0.007,VALID,19.323,VALID,103.0,VALID,1.407,
2018-08-20, 01:15:06,VALID,916.927,VALID,0.0,VALID,98.305,VALID,-0.006,VALID,19.252,VALID,102.0,VALID,1.259,
2018-08-20, 01:16:06,VALID,916.909,VALID,0.0,VALID,98.227,VALID,0.009,VALID,19.184,VALID,109.0,VALID,1.518,
2018-08-20, 01:17:06,VALID,916.864,VALID,0.0,VALID,98.313,VALID,0.015,VALID,19.218,VALID,111.0,VALID,1.821,
2018-08-20, 01:18:06,VALID,916.852,VALID,0.0,VALID,98.399,VALID,0.017,VALID,19.27,VALID,111.0,VALID,1.811,
2018-08-20, 01:19:06,VALID,916.847,VALID,0.0,VALID,98.504,VALID,0.0,VALID,19.327,VALID,112.0,VALID,1.9,
2018-08-20, 01:20:06,VALID,916.819,VALID,0.0,VALID,98.458,VALID,0.008,VALID,19.333,VALID,112.0,VALID,1.864,
2018-08-20, 01:21:06,VALID,916.827,VALID,0.0,VALID,98.487,VALID,0.02,VALID,19.36,VALID,110.0,VALID,1.7,
2018-08-20, 01:22:06,VALID,916.813,VALID,0.0,VALID,98.481,VALID,0.028,VALID,19.368,VALID,110.0,VALID,2.159,
2018-08-20, 01:23:06,VALID,916.805,VALID,0.0,VALID,98.495,VALID,0.052,VALID,19.42,VALID,120.0,VALID,1.972,
2018-08-20, 01:24:06,VALID,916.8,VALID,0.0,VALID,98.452,VALID,0.048,VALID,19.424,VALID,115.0,VALID,1.731,
2018-08-20, 01:25:06,VALID,916.803,VALID,0.0,VALID,98.321,VALID,0.029,VALID,19.346,VALID,117.0,VALID,1.917,
2018-08-20, 01:26:06,VALID,916.775,VALID,0.0,VALID,98.493,VALID,0.035,VALID,19.438,VALID,116.0,VALID,2.088,
2018-08-20, 01:27:06,VALID,916.766,VALID,0.0,VALID,98.53,VALID,0.047,VALID,19.46,VALID,112.0,VALID,1.719,
2018-08-20, 01:28:06,VALID,916.753,VALID,0.0,VALID,98.465,VALID,0.049,VALID,19.394,VALID,111.0,VALID,1.637,
2018-08-20, 01:29:06,VALID,916.731,VALID,0.0,VALID,98.491,VALID,0.044,VALID,19.387,VALID,113.0,VALID,1.9,
2018-08-20, 01:30:06,VALID,916.724,VALID,0.0,VALID,98.555,VALID,0.029,VALID,19.41,VALID,109.0,VALID,1.692,
2018-08-20, 01:31:06,VALID,916.712,VALID,0.0,VALID,98.569,VALID,0.032,VALID,19.407,VALID,115.0,VALID,1.737,
2018-08-20, 01:32:06,VALID,916.72,VALID,0.0,VALID,98.616,VALID,0.031,VALID,19.432,VALID,113.0,VALID,1.639,
2018-08-20, 01:33:06,VALID,916.713,VALID,0.0,VALID,98.611,VALID,0.038,VALID,19.425,VALID,110.0,VALID,1.54,
2018-08-20, 01:34:06,VALID,916.719,VALID,0.0,VALID,98.583,VALID,0.03,VALID,19.395,VALID,110.0,VALID,1.342,
2018-08-20, 01:35:06,VALID,916.736,VALID,0.0,VALID,98.579,VALID,0.043,VALID,19.38,VALID,105.0,VALID,1.309,
2018-08-20, 01:36:06,VALID,916.728,VALID,0.0,VALID,98.578,VALID,0.018,VALID,19.357,VALID,101.0,VALID,1.224,
2018-08-20, 01:37:06,VALID,916.741,VALID,0.0,VALID,98.587,VALID,0.011,VALID,19.341,VALID,102.0,VALID,1.425,
2018-08-20, 01:38:06,VALID,916.725,VALID,0.0,VALID,98.531,VALID,0.011,VALID,19.304,VALID,107.0,VALID,1.181,
2018-08-20, 01:39:06,VALID,916.709,VALID,0.0,VALID,98.467,VALID,0.008,VALID,19.283,VALID,109.0,VALID,1.428,
2018-08-20, 01:40:06,VALID,916.697,VALID,0.0,VALID,98.465,VALID,-0.012,VALID,19.289,VALID,105.0,VALID,1.146,
2018-08-20, 01:41:06,VALID,916.681,VALID,0.0,VALID,98.406,VALID,-0.008,VALID,19.29,VALID,105.0,VALID,1.022,
2018-08-20, 01:42:06,VALID,916.652,VALID,0.0,VALID,98.325,VALID,0.005,VALID,19.298,VALID,110.0,VALID,1.227,
2018-08-20, 01:43:06,VALID,916.637,VALID,0.0,VALID,98.189,VALID,0.006,VALID,19.292,VALID,104.0,VALID,1.07,
2018-08-20, 01:44:06,VALID,916.627,VALID,0.0,VALID,97.874,VALID,0.013,VALID,19.246,VALID,106.0,VALID,1.087,
2018-08-20, 01:45:06,VALID,916.592,VALID,0.0,VALID,97.689,VALID,0.0,VALID,19.275,VALID,108.0,VALID,1.364,
2018-08-20, 01:46:06,VALID,916.574,VALID,0.0,VALID,97.618,VALID,-0.017,VALID,19.329,VALID,103.0,VALID,1.461,
2018-08-20, 01:47:06,VALID,916.579,VALID,0.0,VALID,97.608,VALID,0.009,VALID,19.402,VALID,101.0,VALID,1.592,
2018-08-20, 01:48:06,VALID,916.58,VALID,0.0,VALID,97.386,VALID,0.008,VALID,19.416,VALID,96.0,VALID,1.386,
2018-08-20, 01:49:06,VALID,916.583,VALID,0.0,VALID,97.053,VALID,0.005,VALID,19.411,VALID,94.0,VALID,1.259,
2018-08-20, 01:50:06,VALID,916.598,VALID,0.0,VALID,97.019,VALID,0.01,VALID,19.456,VALID,95.0,VALID,1.195,
2018-08-20, 01:51:06,VALID,916.604,VALID,0.0,VALID,96.706,VALID,0.003,VALID,19.454,VALID,98.0,VALID,1.055,
2018-08-20, 01:52:06,VALID,916.592,VALID,0.0,VALID,96.587,VALID,0.004,VALID,19.469,VALID,104.0,VALID,1.438,
2018-08-20, 01:53:06,VALID,916.597,VALID,0.0,VALID,96.457,VALID,0.012,VALID,19.474,VALID,107.0,VALID,1.356,
2018-08-20, 01:54:06,VALID,916.588,VALID,0.0,VALID,96.201,VALID,0.01,VALID,19.453,VALID,103.0,VALID,1.651,
2018-08-20, 01:55:06,VALID,916.578,VALID,0.0,VALID,96.191,VALID,0.008,VALID,19.45,VALID,102.0,VALID,1.805,
2018-08-20, 01:56:06,VALID,916.562,VALID,0.0,VALID,96.135,VALID,0.003,VALID,19.45,VALID,98.0,VALID,2.056,
2018-08-20, 01:57:06,VALID,916.553,VALID,0.0,VALID,95.908,VALID,-0.002,VALID,19.405,VALID,90.0,VALID,1.85,
2018-08-20, 01:58:06,VALID,916.537,VALID,0.0,VALID,96.033,VALID,0.007,VALID,19.384,VALID,88.0,VALID,1.695,
2018-08-20, 01:59:06,VALID,916.524,VALID,0.0,VALID,96.326,VALID,0.016,VALID,19.379,VALID,90.0,VALID,1.361,
2018-08-20, 02:00:06,VALID,916.535,VALID,0.0,VALID,96.3,VALID,0.015,VALID,19.341,VALID,94.0,VALID,1.096,
2018-08-20, 02:01:06,VALID,916.518,VALID,0.0,VALID,96.45,VALID,-0.002,VALID,19.312,VALID,105.0,VALID,0.777,
2018-08-20, 02:02:06,VALID,916.522,VALID,0.0,VALID,96.632,VALID,-0.007,VALID,19.289,VALID,114.0,VALID,0.712,
2018-08-20, 02:03:06,VALID,916.519,VALID,0.0,VALID,96.68,VALID,0.012,VALID,19.269,VALID,119.0,VALID,1.03,
2018-08-20, 02:04:06,VALID,916.495,VALID,0.0,VALID,96.919,VALID,0.004,VALID,19.249,VALID,116.0,VALID,1.424,
2018-08-20, 02:05:06,VALID,916.484,VALID,0.0,VALID,97.312,VALID,0.012,VALID,19.214,VALID,113.0,VALID,1.579,
2018-08-20, 02:06:06,VALID,916.475,VALID,0.0,VALID,97.51,VALID,0.009,VALID,19.165,VALID,106.0,VALID,1.455,
2018-08-20, 02:07:06,VALID,916.462,VALID,0.0,VALID,97.638,VALID,0.003,VALID,19.1,VALID,101.0,VALID,1.354,
2018-08-20, 02:08:06,VALID,916.467,VALID,0.0,VALID,97.775,VALID,-0.006,VALID,19.071,VALID,103.0,VALID,1.073,
2018-08-20, 02:09:06,VALID,916.489,VALID,0.0,VALID,97.881,VALID,0.022,VALID,19.061,VALID,111.0,VALID,1.031,
2018-08-20, 02:10:06,VALID,916.491,VALID,0.0,VALID,98.071,VALID,0.016,VALID,19.117,VALID,112.0,VALID,0.996,
2018-08-20, 02:11:06,VALID,916.521,VALID,0.0,VALID,98.117,VALID,0.026,VALID,19.146,VALID,119.0,VALID,0.814,
2018-08-20, 02:12:06,VALID,916.528,VALID,0.0,VALID,98.052,VALID,0.026,VALID,19.155,VALID,121.0,VALID,0.739,
2018-08-20, 02:13:06,VALID,916.518,VALID,0.0,VALID,97.968,VALID,0.031,VALID,19.182,VALID,113.0,VALID,0.741,
2018-08-20, 02:14:06,VALID,916.521,VALID,0.0,VALID,97.73,VALID,0.022,VALID,19.177,VALID,112.0,VALID,0.835,
2018-08-20, 02:15:06,VALID,916.507,VALID,0.0,VALID,97.551,VALID,0.025,VALID,19.18,VALID,108.0,VALID,0.915,
2018-08-20, 02:16:06,VALID,916.501,VALID,0.0,VALID,97.205,VALID,0.015,VALID,19.158,VALID,104.0,VALID,1.177,
2018-08-20, 02:17:06,VALID,916.511,VALID,0.0,VALID,96.902,VALID,0.028,VALID,19.166,VALID,98.0,VALID,1.202,
2018-08-20, 02:18:06,VALID,916.496,VALID,0.0,VALID,96.752,VALID,0.028,VALID,19.209,VALID,97.0,VALID,1.178,
2018-08-20, 02:19:06,VALID,916.503,VALID,0.0,VALID,96.394,VALID,0.01,VALID,19.234,VALID,96.0,VALID,0.996,
2018-08-20, 02:20:06,VALID,916.493,VALID,0.0,VALID,95.99,VALID,0.018,VALID,19.226,VALID,97.0,VALID,0.927,
2018-08-20, 02:21:06,VALID,916.5,VALID,0.0,VALID,95.776,VALID,0.022,VALID,19.211,VALID,87.0,VALID,0.509,
2018-08-20, 02:22:07,VALID,916.52,VALID,0.0,VALID,95.732,VALID,0.013,VALID,19.197,VALID,77.0,VALID,0.509,
2018-08-20, 02:23:07,VALID,916.523,VALID,0.0,VALID,95.875,VALID,0.013,VALID,19.187,VALID,68.0,VALID,0.621,
2018-08-20, 02:24:07,VALID,916.527,VALID,0.0,VALID,96.043,VALID,0.019,VALID,19.184,VALID,73.0,VALID,0.745,
2018-08-20, 02:25:07,VALID,916.541,VALID,0.0,VALID,96.423,VALID,0.024,VALID,19.217,VALID,90.0,VALID,0.877,
2018-08-20, 02:26:07,VALID,916.543,VALID,0.0,VALID,96.594,VALID,0.008,VALID,19.259,VALID,94.0,VALID,0.79,
2018-08-20, 02:27:07,VALID,916.538,VALID,0.0,VALID,96.577,VALID,0.025,VALID,19.279,VALID,109.0,VALID,0.948,
2018-08-20, 02:28:07,VALID,916.538,VALID,0.0,VALID,96.525,VALID,0.013,VALID,19.304,VALID,118.0,VALID,1.353,
2018-08-20, 02:29:07,VALID,916.537,VALID,0.0,VALID,96.502,VALID,0.029,VALID,19.349,VALID,116.0,VALID,1.544,
2018-08-20, 02:30:07,VALID,916.52,VALID,0.0,VALID,96.279,VALID,0.016,VALID,19.342,VALID,110.0,VALID,1.453,
2018-08-20, 02:31:07,VALID,916.501,VALID,0.0,VALID,96.06,VALID,0.019,VALID,19.312,VALID,105.0,VALID,1.309,
2018-08-20, 02:32:07,VALID,916.493,VALID,0.0,VALID,95.884,VALID,0.012,VALID,19.274,VALID,103.0,VALID,1.324,
2018-08-20, 02:33:07,VALID,916.456,VALID,0.0,VALID,95.859,VALID,0.009,VALID,19.232,VALID,98.0,VALID,1.249,
2018-08-20, 02:34:07,VALID,916.486,VALID,0.0,VALID,95.854,VALID,0.011,VALID,19.182,VALID,102.0,VALID,0.847,
2018-08-20, 02:35:07,VALID,916.492,VALID,0.0,VALID,96.003,VALID,-0.004,VALID,19.139,VALID,103.0,VALID,0.333,
2018-08-20, 02:36:07,VALID,916.476,VALID,0.0,VALID,96.09,VALID,0.001,VALID,19.112,VALID,102.0,VALID,0.0,
2018-08-20, 02:37:07,VALID,916.487,VALID,0.0,VALID,96.216,VALID,-0.01,VALID,19.103,VALID,104.0,VALID,0.073,
2018-08-20, 02:38:07,VALID,916.485,VALID,0.0,VALID,96.372,VALID,-0.004,VALID,19.105,VALID,82.0,VALID,0.276,
2018-08-20, 02:39:07,VALID,916.467,VALID,0.0,VALID,96.317,VALID,0.011,VALID,19.092,VALID,90.0,VALID,0.449,
2018-08-20, 02:40:07,VALID,916.484,VALID,0.0,VALID,96.432,VALID,-0.003,VALID,19.077,VALID,87.0,VALID,0.714,
2018-08-20, 02:41:07,VALID,916.464,VALID,0.0,VALID,96.568,VALID,-0.002,VALID,19.05,VALID,84.0,VALID,0.462,
2018-08-20, 02:42:07,VALID,916.461,VALID,0.0,VALID,96.483,VALID,0.003,VALID,19.002,VALID,74.0,VALID,0.461,
2018-08-20, 02:43:07,VALID,916.457,VALID,0.0,VALID,96.578,VALID,-0.004,VALID,18.994,VALID,74.0,VALID,0.422,
2018-08-20, 02:44:07,VALID,916.447,VALID,0.0,VALID,97.055,VALID,0.004,VALID,19.041,VALID,83.0,VALID,0.567,
2018-08-20, 02:45:07,VALID,916.447,VALID,0.0,VALID,97.194,VALID,0.006,VALID,19.069,VALID,87.0,VALID,0.523,
2018-08-20, 02:46:07,VALID,916.422,VALID,0.0,VALID,97.146,VALID,-0.022,VALID,19.054,VALID,89.0,VALID,0.593,
2018-08-20, 02:47:07,VALID,916.414,VALID,0.0,VALID,97.038,VALID,0.001,VALID,19.009,VALID,88.0,VALID,0.826,
2018-08-20, 02:48:07,VALID,916.376,VALID,0.0,VALID,97.152,VALID,0.014,VALID,19.028,VALID,87.0,VALID,1.141,
2018-08-20, 02:49:07,VALID,916.362,VALID,0.0,VALID,97.447,VALID,0.016,VALID,19.075,VALID,92.0,VALID,1.196,
2018-08-20, 02:50:07,VALID,916.36,VALID,0.0,VALID,97.327,VALID,-0.001,VALID,19.026,VALID,95.0,VALID,1.104,
2018-08-20, 02:51:07,VALID,916.379,VALID,0.0,VALID,97.151,VALID,0.016,VALID,18.966,VALID,106.0,VALID,1.047,
2018-08-20, 02:52:07,VALID,916.367,VALID,0.0,VALID,96.957,VALID,0.033,VALID,18.919,VALID,103.0,VALID,1.019,
2018-08-20, 02:53:07,VALID,916.391,VALID,0.0,VALID,96.919,VALID,0.019,VALID,18.916,VALID,98.0,VALID,1.087,
2018-08-20, 02:54:07,VALID,916.401,VALID,0.0,VALID,96.987,VALID,0.039,VALID,18.911,VALID,84.0,VALID,1.103,
2018-08-20, 02:55:07,VALID,916.404,VALID,0.0,VALID,96.893,VALID,0.037,VALID,18.863,VALID,77.0,VALID,1.05,
2018-08-20, 02:56:07,VALID,916.425,VALID,0.0,VALID,96.939,VALID,0.038,VALID,18.86,VALID,81.0,VALID,1.153,
2018-08-20, 02:57:07,VALID,916.421,VALID,0.0,VALID,97.138,VALID,0.043,VALID,18.872,VALID,86.0,VALID,1.186,
2018-08-20, 02:58:07,VALID,916.445,VALID,0.0,VALID,97.342,VALID,0.033,VALID,18.908,VALID,98.0,VALID,1.213,
2018-08-20, 02:59:07,VALID,916.434,VALID,0.0,VALID,97.338,VALID,0.036,VALID,18.899,VALID,106.0,VALID,1.246,
2018-08-20, 03:00:07,VALID,916.427,VALID,0.0,VALID,97.322,VALID,0.046,VALID,18.914,VALID,103.0,VALID,1.233,
2018-08-20, 03:01:07,VALID,916.439,VALID,0.0,VALID,97.322,VALID,0.036,VALID,18.939,VALID,102.0,VALID,1.07,
2018-08-20, 03:02:07,VALID,916.435,VALID,0.0,VALID,97.2,VALID,0.02,VALID,18.931,VALID,108.0,VALID,0.823,
2018-08-20, 03:03:07,VALID,916.446,VALID,0.0,VALID,97.034,VALID,0.025,VALID,18.908,VALID,109.0,VALID,0.821,
2018-08-20, 03:04:07,VALID,916.438,VALID,0.0,VALID,96.981,VALID,0.029,VALID,18.89,VALID,109.0,VALID,0.673,
2018-08-20, 03:05:07,VALID,916.452,VALID,0.0,VALID,96.947,VALID,0.033,VALID,18.878,VALID,107.0,VALID,0.768,
2018-08-20, 03:06:07,VALID,916.471,VALID,0.0,VALID,97.049,VALID,0.018,VALID,18.884,VALID,106.0,VALID,0.813,
2018-08-20, 03:07:07,VALID,916.486,VALID,0.0,VALID,97.226,VALID,0.023,VALID,18.923,VALID,105.0,VALID,0.887,
2018-08-20, 03:08:07,VALID,916.485,VALID,0.0,VALID,97.276,VALID,0.03,VALID,18.961,VALID,104.0,VALID,0.96,
2018-08-20, 03:09:07,VALID,916.475,VALID,0.0,VALID,97.184,VALID,0.039,VALID,18.981,VALID,101.0,VALID,1.002,
2018-08-20, 03:10:07,VALID,916.445,VALID,0.0,VALID,97.055,VALID,0.039,VALID,19.001,VALID,94.0,VALID,1.062,
2018-08-20, 03:11:07,VALID,916.429,VALID,0.0,VALID,96.814,VALID,0.023,VALID,19.015,VALID,90.0,VALID,1.084,
2018-08-20, 03:12:07,VALID,916.419,VALID,0.0,VALID,96.653,VALID,0.033,VALID,19.021,VALID,87.0,VALID,1.167,
2018-08-20, 03:13:07,VALID,916.391,VALID,0.0,VALID,96.456,VALID,0.052,VALID,18.997,VALID,82.0,VALID,1.188,
2018-08-20, 03:14:07,VALID,916.377,VALID,0.0,VALID,96.575,VALID,0.045,VALID,18.999,VALID,87.0,VALID,1.386,
2018-08-20, 03:15:07,VALID,916.367,VALID,0.0,VALID,96.755,VALID,0.041,VALID,18.983,VALID,95.0,VALID,1.337,
2018-08-20, 03:16:07,VALID,916.37,VALID,0.0,VALID,96.035,VALID,0.053,VALID,18.806,VALID,119.0,VALID,1.25,
2018-08-20, 03:17:07,VALID,916.357,VALID,0.0,VALID,96.434,VALID,0.04,VALID,18.771,VALID,111.0,VALID,1.554,
2018-08-20, 03:18:07,VALID,916.358,VALID,0.0,VALID,96.743,VALID,0.038,VALID,18.762,VALID,115.0,VALID,1.617,
2018-08-20, 03:19:07,VALID,916.338,VALID,0.0,VALID,96.733,VALID,0.046,VALID,18.725,VALID,115.0,VALID,1.414,
2018-08-20, 03:20:07,VALID,916.335,VALID,0.0,VALID,96.774,VALID,0.026,VALID,18.665,VALID,112.0,VALID,1.29,
2018-08-20, 03:21:07,VALID,916.31,VALID,0.0,VALID,96.788,VALID,-0.004,VALID,18.59,VALID,106.0,VALID,1.196,
2018-08-20, 03:22:07,VALID,916.319,VALID,0.0,VALID,96.84,VALID,-0.023,VALID,18.525,VALID,104.0,VALID,1.195,
2018-08-20, 03:23:07,VALID,916.282,VALID,0.0,VALID,97.167,VALID,-0.013,VALID,18.51,VALID,97.0,VALID,1.275,
2018-08-20, 03:24:07,VALID,916.289,VALID,0.0,VALID,97.603,VALID,-0.021,VALID,18.531,VALID,97.0,VALID,1.246,
2018-08-20, 03:25:07,VALID,916.281,VALID,0.0,VALID,97.759,VALID,-0.032,VALID,18.505,VALID,95.0,VALID,1.246,
2018-08-20, 03:26:07,VALID,916.281,VALID,0.0,VALID,97.858,VALID,-0.022,VALID,18.472,VALID,94.0,VALID,1.257,
2018-08-20, 03:27:07,VALID,916.27,VALID,0.0,VALID,97.998,VALID,-0.022,VALID,18.492,VALID,97.0,VALID,1.277,
2018-08-20, 03:28:07,VALID,916.276,VALID,0.0,VALID,98.066,VALID,-0.019,VALID,18.514,VALID,94.0,VALID,1.273,
2018-08-20, 03:29:07,VALID,916.271,VALID,0.0,VALID,98.103,VALID,-0.023,VALID,18.522,VALID,90.0,VALID,1.173,
2018-08-20, 03:30:07,VALID,916.266,VALID,0.0,VALID,98.033,VALID,-0.011,VALID,18.517,VALID,95.0,VALID,1.17,
2018-08-20, 03:31:07,VALID,916.252,VALID,0.0,VALID,98.021,VALID,-0.004,VALID,18.534,VALID,95.0,VALID,1.13,
2018-08-20, 03:32:07,VALID,916.243,VALID,0.0,VALID,97.908,VALID,-0.027,VALID,18.532,VALID,98.0,VALID,1.291,
2018-08-20, 03:33:07,VALID,916.233,VALID,0.0,VALID,97.774,VALID,-0.038,VALID,18.556,VALID,96.0,VALID,1.347,
2018-08-20, 03:34:07,VALID,916.219,VALID,0.0,VALID,97.606,VALID,-0.046,VALID,18.566,VALID,102.0,VALID,1.37,
2018-08-20, 03:35:07,VALID,916.215,VALID,0.0,VALID,97.352,VALID,-0.011,VALID,18.555,VALID,105.0,VALID,1.358,
2018-08-20, 03:36:07,VALID,916.206,VALID,0.0,VALID,97.043,VALID,-0.012,VALID,18.538,VALID,107.0,VALID,1.266,
2018-08-20, 03:37:07,VALID,916.204,VALID,0.0,VALID,96.814,VALID,-0.013,VALID,18.535,VALID,108.0,VALID,1.314,
2018-08-20, 03:38:07,VALID,916.208,VALID,0.0,VALID,96.613,VALID,-0.009,VALID,18.506,VALID,105.0,VALID,1.094,
2018-08-20, 03:39:07,VALID,916.225,VALID,0.0,VALID,96.446,VALID,-0.013,VALID,18.454,VALID,108.0,VALID,1.036,
2018-08-20, 03:40:07,VALID,916.226,VALID,0.0,VALID,96.641,VALID,-0.025,VALID,18.446,VALID,108.0,VALID,1.214,